Regional Weather Roundup
Issued by NWS

Home | Current Version | Previous Version | Graphics & Text | Print | Product List | Glossary On
Versions: 1 2 3 4 5 6 7 8 9 10 11 12 13 14 15 16 17 18 19 20 21 22 23 24 25 26 27 28 29 30 31 32 33 34 35 36 37 38 39 40 41 42 43 44 45 46 47 48 49 50
000
ASUS43 KIND 191159
RWRIN

WEATHER ROUNDUP FOR INDIANA
NATIONAL WEATHER SERVICE INDIANAPOLIS IN
800 AM EDT SAT APR 19 2014

NOTE: "FAIR" INDICATES FEW OR NO CLOUDS BELOW 12,000 FEET WITH NO
SIGNIFICANT WEATHER AND/OR OBSTRUCTIONS TO VISIBILITY.

* - STATION DOES NOT REPORT WEATHER SUCH AS PRECIPITATION OR FOG.

+ - STATION NOT QUALITY CONTROLLED BY THE NATIONAL WEATHER SERVICE.
    USE DATA WITH CAUTION...ESPECIALLY DEWPOINT AND RELATIVE
    HUMIDITY OBSERVATIONS.

INZ001>003-010>013-019-020-191300-
NORTHWEST INDIANA

CITY           SKY/WX    TMP DP  RH WIND       PRES   REMARKS
GARY /AIRPORT/ CLEAR     39  34  81 NE7       30.38R
VALPARAISO     CLEAR     35  30  82 NE5       30.37R WCI  31
6HR MIN TEMP:  30; 6HR MAX TEMP:  35;


$$

LMZ046-743>745-191300-
SOUTHERN LAKE MICHIGAN

STATION/POSITION TIME  TEMP WIND        PRES
                       AIR  DIR/SP/G
                 (UTC) (F)  (DEG/KT/KT) (MB)
MICHIGAN CITY    1100   38   50/  9/ 10   N/A

$$

INZ004-005-014>016-021>024-191300-
NORTH CENTRAL INDIANA

CITY           SKY/WX    TMP DP  RH WIND       PRES   REMARKS
GOSHEN         SUNNY     40  34  79 E7        30.39R
6HR MIN TEMP:  33; 6HR MAX TEMP:  40;

PERU/GRISSOM   SUNNY     41  39  93 E14       30.34R
6HR MIN TEMP:  34; 6HR MAX TEMP:  42;

SOUTH BEND     SUNNY     38  32  79 E6        30.39R
6HR MIN TEMP:  33; 6HR MAX TEMP:  38;


$$

INZ006>009-017-018-025>027-191300-
NORTHEAST INDIANA

CITY           SKY/WX    TMP DP  RH WIND       PRES   REMARKS
ANGOLA *+      SUNNY     36  30  80 E8        30.40R
FORT WAYNE     SUNNY     39  34  82 E14       30.39R
6HR MIN TEMP:  38; 6HR MAX TEMP:  41;


$$

INZ028-029-035-036-043>045-051>053-191300-
WEST CENTRAL INDIANA

CITY           SKY/WX    TMP DP  RH WIND       PRES   REMARKS
GREENCASTLE +  CLEAR     41  34  75 NE3       30.32R
LAFAYETTE      CLEAR     37  28  70 E7        30.34R
6HR MIN TEMP:  35; 6HR MAX TEMP:  41;

TERRE HAUTE    CLEAR     42  35  76 NE3       30.31R
6HR MIN TEMP:  39; 6HR MAX TEMP:  49;


$$

INZ030>032-037>040-046>048-054>057-064-065-191300-
CENTRAL INDIANA

CITY           SKY/WX    TMP DP  RH WIND       PRES   REMARKS
COLUMBUS       SUNNY     41  39  93 CALM      30.31R
INDIANAPOLIS   MOSUNNY   43  35  73 NE10      30.32R
6HR MIN TEMP:  41; 6HR MAX TEMP:  47;

-EAGLE CREEK   SUNNY     43  34  70 NE7       30.32R
6HR MIN TEMP:  40; 6HR MAX TEMP:  46;

KOKOMO *+      SUNNY     41  36  81 E13       30.35R
MT COMFORT *+  SUNNY     41  41 100 NE6       30.32R
SHELBYVILLE    SUNNY     45  36  70 NE6       30.31R
6HR MIN TEMP:  42; 6HR MAX TEMP:  51;


$$

INZ033-034-041-042-049-050-058-059-191300-
EAST CENTRAL INDIANA

CITY           SKY/WX    TMP DP  RH WIND       PRES   REMARKS
MUNCIE         CLOUDY    42  40  92 E12       30.34R FOG
6HR MIN TEMP:  39; 6HR MAX TEMP:  43;


$$

INZ060-061-067>069-081>083-085>088-191300-
SOUTHWEST INDIANA

CITY           SKY/WX    TMP DP  RH WIND       PRES   REMARKS
EVANSVILLE     CLEAR     53  40  61 NE5       30.27R
6HR MIN TEMP:  51; 6HR MAX TEMP:  59;

HUNTINGBURG *+ CLEAR     48  37  66 NE8       30.28R
6HR MIN TEMP:  48; 6HR MAX TEMP:  54;


$$

INZ062-063-066-070>080-084-089>092-191300-
SOUTH CENTRAL AND SOUTHEAST INDIANA

CITY           SKY/WX    TMP DP  RH WIND       PRES   REMARKS
BLOOMINGTON    CLEAR     45  36  70 NE3       30.30R
6HR MIN TEMP:  43; 6HR MAX TEMP:  51;


$$




USA.gov is the U.S. government's official web portal to all federal, state and local government web resources and services.